W5GGH Weather Reports


time (UTC)temp
F
wind
direction
speed
knots
gust
knots
rain 1hr
in
rain 24hr
in
rain mn
in
humidity
%
barometer
mb
20260506211556 64 63 3.5 5.2 0.00 0.09 0.09 68 1030.4
20260506211054 64 322 4.3 4.3 0.00 0.09 0.09 69 1030.1
20260506210550 64 47 3.5 4.3 0.00 0.09 0.09 68 1030.4
20260506210047 64 1 1.7 4.3 0.00 0.09 0.09 68 1030.7
20260506205543 64 35 3.5 3.5 0.00 0.09 0.09 68 1030.7
20260506205039 64 332 3.5 4.3 0.00 0.09 0.09 66 1030.5
20260506204537 65 46 4.3 5.2 0.00 0.09 0.09 66 1030.5
20260506204034 65 19 1.7 3.5 0.00 0.09 0.09 65 1030.7
20260506203532 65 9 3.5 3.5 0.00 0.09 0.09 67 1030.7
20260506203028 65 347 2.6 5.2 0.00 0.09 0.09 67 1030.6
20260506202526 65 20 2.6 4.3 0.00 0.09 0.09 66 1030.7
20260506202022 64 6 1.7 7.0 0.00 0.09 0.09 66 1031.0
20260506201520 64 15 3.5 7.8 0.00 0.09 0.09 68 1030.8
20260506201016 64 38 2.6 3.5 0.00 0.09 0.09 69 1031.1
20260506200512 64 34 3.5 5.2 0.00 0.09 0.09 67 1031.3
20260506200009 64 32 2.6 5.2 0.00 0.09 0.09 66 1031.2
20260506195506 63 25 1.7 4.3 0.00 0.09 0.09 69 1031.3
20260506195002 63 61 2.6 4.3 0.00 0.09 0.09 70 1031.4
20260506194500 62 58 2.6 6.1 0.00 0.09 0.09 70 1031.6
20260506193956 62 327 3.5 5.2 0.00 0.09 0.09 69 1031.5
20260506193454 61 345 3.5 5.2 0.00 0.09 0.09 71 1031.6
20260506192950 61 355 2.6 5.2 0.00 0.09 0.09 71 1031.6
20260506192447 60 53 1.7 2.6 0.00 0.09 0.09 74 1031.8
20260506191944 60 8 2.6 4.3 0.00 0.09 0.09 73 1031.8
20260506191441 59 43 1.7 3.5 0.00 0.09 0.09 73 1031.8
20260506190937 59 19 2.6 4.3 0.00 0.09 0.09 73 1031.8
20260506190434 59 344 1.7 4.3 0.00 0.09 0.09 73 1031.9
20260506185931 59 342 3.5 5.2 0.00 0.09 0.09 73 1032.0
20260506185428 59 331 2.6 4.3 0.00 0.09 0.09 74 1032.0
20260506184925 59 328 4.3 4.3 0.00 0.09 0.09 76 1032.2
20260506184422 58 8 2.6 3.5 0.00 0.09 0.09 75 1032.3
20260506183919 58 21 4.3 4.3 0.00 0.09 0.09 76 1032.3
20260506183414 58 21 1.7 3.5 0.00 0.09 0.09 76 1032.2
20260506182912 58 38 2.6 4.3 0.00 0.09 0.09 76 1032.0
20260506182409 58 30 2.6 7.8 0.00 0.09 0.09 75 1031.8
20260506181906 58 40 4.3 5.2 0.00 0.09 0.09 76 1032.0
20260506181404 58 7 1.7 3.5 0.00 0.09 0.09 77 1031.5
20260506180901 58 41 6.1 7.8 0.00 0.09 0.09 77 1031.0
20260506180356 57 337 2.6 5.2 0.00 0.09 0.09 79 1030.8
20260506175854 57 12 7.0 7.8 0.00 0.09 0.09 78 1030.8
20260506175350 57 356 6.1 10.4 0.00 0.09 0.09 79 1030.7
20260506174847 57 66 2.6 7.0 0.00 0.09 0.09 79 1030.9
20260506174345 57 24 7.0 7.0 0.00 0.09 0.09 81 1031.0
20260506173842 56 17 2.6 5.2 0.00 0.09 0.09 82 1031.0
20260506173339 56 20 3.5 6.1 0.00 0.09 0.09 83 1031.3
20260506172836 55 37 2.6 4.3 0.00 0.09 0.09 83 1031.4
20260506172332 55 26 2.6 4.3 0.00 0.09 0.09 83 1031.6
20260506171830 55 4 2.6 7.8 0.00 0.09 0.09 83 1031.7
20260506171327 55 352 5.2 7.0 0.00 0.09 0.09 83 1031.5
20260506170825 55 44 4.3 7.8 0.00 0.09 0.09 84 1031.5
20260506170320 55 10 3.5 4.3 0.00 0.09 0.09 85 1031.6
20260506165820 55 22 4.3 7.0 0.00 0.09 0.09 84 1031.3
20260506165317 55 8 4.3 7.0 0.00 0.09 0.09 85 1031.5
20260506164813 55 333 5.2 7.8 0.00 0.09 0.09 85 1031.3
20260506164310 55 0 3.5 9.6 0.00 0.09 0.09 86 1031.4
20260506163807 55 32 4.3 4.3 0.00 0.09 0.09 87 1031.3
20260506163302 54 356 2.6 6.1 0.00 0.09 0.09 87 1031.6
20260506162758 54 344 4.3 7.0 0.00 0.09 0.09 87 1031.8
20260506162256 54 1 4.3 6.1 0.00 0.09 0.09 86 1031.7
20260506161753 55 20 4.3 6.1 0.00 0.09 0.09 87 1031.4
20260506161250 54 45 1.7 7.0 0.00 0.09 0.09 86 1031.5
20260506160748 54 51 3.5 4.3 0.00 0.09 0.09 87 1031.6
20260506160244 55 311 3.5 5.2 0.02 0.09 0.09 87 1031.6
20260506155743 55 37 3.5 5.2 0.02 0.09 0.09 88 1031.4
20260506155239 55 334 0.9 4.3 0.00 0.09 0.09 88 1031.2
20260506153347 54 33 2.6 7.8 0.00 0.09 0.09 88 1030.5
20260506152843 54 8 5.2 5.2 0.00 0.09 0.09 90 1030.9
20260506152341 54 45 4.3 5.2 0.02 0.09 0.09 90 1031.1
20260506151839 53 24 3.5 6.1 0.05 0.09 0.09 91 1031.2
20260506151335 53 72 4.3 5.2 0.05 0.09 0.09 90 1031.6
20260506150833 53 37 2.6 3.5 0.02 0.08 0.08 90 1032.3
20260506150329 53 8 3.5 3.5 0.00 0.08 0.08 89 1032.5
20260506145826 53 17 1.7 2.6 0.12 0.08 0.08 89 1032.7
20260506145322 53 14 2.6 7.0 0.26 0.07 0.07 88 1031.6
20260506144820 53 7 6.1 7.8 0.28 0.06 0.06 86 1032.5
20260506144317 53 359 0.9 3.5 0.12 0.02 0.02 84 1033.6
20260506143815 53 20 1.7 7.0 0.02 0.01 0.01 83 1032.9
20260506143312 53 19 3.5 4.3 0.00 0.00 0.00 83 1032.5
20260506142810 53 51 0.9 3.5 0.00 0.00 0.00 83 1032.9
20260506142307 53 357 1.7 5.2 0.00 0.00 0.00 83 1033.3
20260506141806 53 16 3.5 6.1 0.00 0.00 0.00 83 1031.1
20260506141303 54 40 4.3 8.7 0.02 0.00 0.00 83 1030.7
20260506140801 54 78 2.6 9.6 0.02 0.00 0.00 83 1031.0
20260506140258 54 59 3.5 5.2 0.02 0.00 0.00 82 1031.4
20260506135755 54 332 4.3 7.0 0.00 0.00 0.00 81 1031.3
20260506135251 54 352 4.3 9.6 0.00 0.00 0.00 80 1031.9
20260506134748 54 328 3.5 5.2 0.00 0.00 0.00 80 1031.8
20260506134244 54 42 4.3 7.8 0.00 0.00 0.00 80 1031.5
20260506133741 54 3 3.5 4.3 0.00 0.00 0.00 80 1031.3
20260506133238 54 0 1.7 7.0 0.00 0.00 0.00 80 1030.9
20260506132735 54 8 5.2 11.3 0.00 0.00 0.00 79 1031.2
20260506132232 54 54 3.5 9.6 0.00 0.00 0.00 79 1030.8
20260506131730 54 341 2.6 8.7 0.00 0.00 0.00 80 1030.6
20260506131226 54 18 2.6 7.8 0.00 0.00 0.00 79 1030.6
20260506130723 55 339 2.6 8.7 0.00 0.00 0.00 78 1030.8
20260506130220 55 335 2.6 5.2 0.00 0.00 0.00 79 1030.5
20260506125718 55 14 5.2 7.8 0.00 0.00 0.00 78 1030.2
20260506125215 55 22 1.7 7.0 0.00 0.00 0.00 77 1030.0
20260506124713 55 27 3.5 7.8 0.00 0.00 0.00 76 1030.4
20260506124211 55 38 2.6 7.0 0.00 0.00 0.00 76 1030.1
20260506123708 55 11 2.6 7.0 0.00 0.00 0.00 75 1030.0
20260506123207 55 19 2.6 6.1 0.00 0.00 0.00 74 1029.7
20260506122703 56 9 3.5 6.1 0.00 0.00 0.00 74 1030.0
20260506122201 56 20 7.0 7.0 0.00 0.00 0.00 74 1030.0
20260506121658 56 335 5.2 8.7 0.00 0.00 0.00 74 1030.1
20260506121154 56 302 6.1 6.1 0.00 0.00 0.00 74 1029.5
20260506120653 56 354 2.6 4.3 0.00 0.00 0.00 74 1029.4
20260506120150 56 336 3.5 5.2 0.00 0.00 0.00 74 1029.5
20260506115648 57 343 3.5 6.1 0.00 0.00 0.00 74 1029.4
20260506115146 57 1 2.6 7.8 0.00 0.00 0.00 74 1029.4
20260506114643 57 323 3.5 4.3 0.00 0.00 0.00 74 1029.4
20260506114141 57 14 1.7 5.2 0.00 0.00 0.00 73 1029.5
20260506113639 57 1 2.6 5.2 0.00 0.00 0.00 73 1029.3
20260506113136 57 43 3.5 6.1 0.00 0.00 0.00 73 1029.2
20260506112632 57 354 4.3 10.4 0.00 0.00 0.00 72 1029.1
20260506112130 57 12 2.6 4.3 0.00 0.00 0.00 73 1029.2
20260506111627 57 73 4.3 5.2 0.00 0.00 0.00 73 1028.8
20260506111125 58 14 3.5 7.0 0.00 0.00 0.00 73 1028.8
20260506110622 58 24 2.6 7.8 0.00 0.00 0.00 74 1028.6
20260506110119 58 354 2.6 4.3 0.00 0.00 0.00 74 1028.5
20260506105616 58 14 2.6 5.2 0.00 0.00 0.00 74 1028.7
20260506105113 58 28 5.2 6.1 0.00 0.00 0.00 74 1028.6
20260506104611 58 359 1.7 7.0 0.00 0.00 0.00 74 1028.5
20260506104108 58 349 2.6 5.2 0.00 0.00 0.00 74 1028.4
20260506103605 58 348 2.6 7.8 0.00 0.00 0.00 73 1028.3
20260506103102 58 87 2.6 8.7 0.00 0.00 0.00 74 1028.2
20260506102600 58 20 2.6 8.7 0.00 0.00 0.00 74 1028.0
20260506102057 58 10 5.2 7.8 0.00 0.00 0.00 74 1027.7
20260506101554 58 12 2.6 7.0 0.00 0.00 0.00 74 1028.0
20260506101051 58 14 4.3 7.0 0.00 0.00 0.00 74 1027.6
20260506100549 58 52 1.7 7.0 0.00 0.00 0.00 74 1027.6
20260506100047 58 19 4.3 6.1 0.00 0.00 0.00 74 1027.8
20260506095546 58 16 5.2 7.0 0.00 0.00 0.00 74 1027.6
20260506095042 59 339 3.5 6.1 0.00 0.00 0.00 75 1027.5
20260506094539 59 356 2.6 5.2 0.00 0.00 0.00 75 1027.4
20260506094037 59 52 1.7 6.1 0.00 0.00 0.00 75 1027.3
20260506093536 59 17 2.6 4.3 0.00 0.00 0.00 74 1027.5
20260506093032 59 28 3.5 6.1 0.00 0.00 0.00 75 1027.5
20260506092530 59 31 1.7 7.0 0.00 0.00 0.00 74 1027.3
20260506092027 59 340 1.7 8.7 0.00 0.00 0.00 74 1027.6
20260506091525 59 3 5.2 5.2 0.00 0.00 0.00 74 1027.3
20260506091022 59 350 1.7 5.2 0.00 0.00 0.00 74 1027.3
20260506090520 59 14 3.5 6.1 0.00 0.00 0.00 75 1027.2
20260506090016 59 38 3.5 3.5 0.00 0.00 0.00 75 1027.5
20260506085513 60 22 5.2 7.0 0.00 0.00 0.00 75 1027.2
20260506085009 60 38 5.2 5.2 0.00 0.00 0.00 75 1027.3
20260506084506 60 7 1.7 4.3 0.00 0.00 0.00 75 1027.0
20260506084002 60 42 4.3 7.0 0.00 0.00 0.00 75 1027.2
20260506083500 60 6 1.7 6.1 0.00 0.00 0.00 75 1027.1
20260506082957 60 6 1.7 4.3 0.00 0.00 0.00 75 1027.0
20260506082454 60 34 1.7 5.2 0.00 0.00 0.00 75 1027.0
20260506081949 60 30 1.7 4.3 0.00 0.00 0.00 76 1026.9
20260506081448 61 25 1.7 6.1 0.00 0.00 0.00 75 1026.7
20260506080945 61 331 2.6 5.2 0.00 0.00 0.00 76 1026.8
20260506080442 61 8 3.5 7.0 0.00 0.00 0.00 76 1026.9
20260506073426 61 29 2.6 2.6 0.00 0.00 0.00 76 1026.7
20260506072923 61 60 1.7 6.1 0.00 0.00 0.00 76 1026.6
20260506072420 61 11 1.7 5.2 0.00 0.00 0.00 76 1026.6
20260506071918 61 25 3.5 5.2 0.00 0.00 0.00 76 1026.6
20260506071416 61 0 2.6 6.1 0.00 0.00 0.00 76 1026.6
20260506070912 62 42 0.9 6.1 0.00 0.00 0.00 76 1026.4
20260506070409 62 18 2.6 6.1 0.00 0.00 0.00 76 1026.4
20260506062347 62 311 2.6 4.3 0.00 0.00 0.00 77 1026.5
20260506061842 62 354 6.1 6.1 0.00 0.00 0.00 76 1026.3
20260506061339 62 341 3.5 5.2 0.00 0.00 0.00 76 1026.4
20260506060837 62 347 3.5 5.2 0.00 0.00 0.00 76 1026.5
20260506060335 63 18 3.5 5.2 0.00 0.00 0.00 76 1026.4
20260506051307 64 345 1.7 3.5 0.00 0.00 0.00 74 1026.4
20260506050805 64 1 2.6 3.5 0.00 0.00 0.00 74 1026.5
20260506050302 65 353 1.7 5.2 0.00 0.00 0.00 73 1026.6
20260506044752 65 35 3.5 6.1 0.00 0.00 0.00 73 1026.4
20260506044250 65 334 3.5 6.1 0.00 0.00 0.00 73 1026.3
20260506043747 66 328 4.3 5.2 0.00 0.00 0.00 73 1026.4
20260506043244 66 4 2.6 6.1 0.00 0.00 0.00 73 1026.4
20260506042743 66 28 2.6 5.2 0.00 0.00 0.00 73 1026.2
20260506042241 67 304 4.3 6.1 0.00 0.00 0.00 73 1026.5
20260506041739 67 43 1.7 5.2 0.00 0.00 0.00 72 1026.2
20260506041236 67 6 1.7 5.2 0.00 0.00 0.00 72 1026.4
20260506040733 67 8 1.7 6.1 0.00 0.00 0.00 71 1026.5
20260506040230 68 54 3.5 8.7 0.00 0.00 0.00 71 1026.2
20260506035727 68 45 6.1 7.0 0.00 0.00 0.00 71 1026.3
20260506035224 68 322 3.5 5.2 0.00 0.00 0.00 70 1026.3
20260506034721 68 26 2.6 7.8 0.00 0.00 0.00 70 1025.9
20260506034218 68 354 1.7 5.2 0.00 0.00 0.00 70 1025.7
20260506033715 68 22 2.6 3.5 0.00 0.00 0.00 69 1025.6
20260506033212 69 17 1.7 5.2 0.00 0.00 0.00 69 1025.6
20260506032709 69 15 4.3 7.0 0.00 0.00 0.00 69 1025.7
20260506032206 69 10 3.5 5.2 0.00 0.00 0.00 69 1025.5
20260506031703 69 6 0.9 7.0 0.00 0.00 0.00 69 1025.3
20260506031200 69 32 2.6 5.2 0.00 0.00 0.00 69 1025.1
20260506030658 69 29 5.2 7.0 0.00 0.00 0.00 69 1024.8
20260506030155 69 343 2.6 5.2 0.00 0.00 0.00 69 1024.9
20260506025652 70 35 3.5 4.3 0.00 0.00 0.00 68 1024.8
20260506025148 70 16 2.6 5.2 0.00 0.00 0.00 68 1024.6
20260506024646 70 29 1.7 3.5 0.00 0.00 0.00 68 1024.8
20260506024142 70 324 2.6 5.2 0.00 0.00 0.00 68 1024.8
20260506023638 70 316 3.5 5.2 0.00 0.00 0.00 68 1024.6
20260506023136 71 348 3.5 4.3 0.00 0.00 0.00 67 1024.4
20260506022633 71 12 4.3 5.2 0.00 0.00 0.00 67 1024.4
20260506022130 71 32 3.5 7.0 0.00 0.00 0.00 67 1024.4
20260506021628 72 49 3.5 7.0 0.00 0.00 0.00 67 1024.2
20260506021125 72 9 1.7 5.2 0.00 0.00 0.00 67 1024.2
20260506020622 72 321 2.6 5.2 0.00 0.00 0.00 67 1024.0
20260506020119 73 41 3.5 6.1 0.00 0.00 0.00 66 1023.9
20260506015617 73 36 4.3 5.2 0.00 0.00 0.00 66 1023.9
20260506015114 73 49 4.3 4.3 0.00 0.00 0.00 65 1023.6
20260506014611 73 2 2.6 7.8 0.00 0.00 0.00 65 1023.2
20260506014106 74 346 3.5 5.2 0.00 0.00 0.00 64 1023.3
20260506013605 74 23 3.5 5.2 0.00 0.00 0.00 65 1023.2
20260506013102 74 10 1.7 9.6 0.00 0.00 0.00 65 1022.9
20260506012558 74 330 2.6 7.8 0.00 0.00 0.00 65 1022.8
20260506012054 74 34 2.6 3.5 0.00 0.00 0.00 65 1022.7
20260506011552 74 359 1.7 5.2 0.00 0.00 0.00 65 1022.3
20260506011048 75 336 0.9 4.3 0.00 0.00 0.00 64 1022.2
20260506010548 75 327 1.7 7.0 0.00 0.00 0.00 64 1022.5
20260506010044 75 343 1.7 3.5 0.00 0.00 0.00 64 1022.4
20260506005541 75 3 1.7 4.3 0.00 0.00 0.00 63 1022.3
20260506005037 76 77 2.6 5.2 0.00 0.00 0.00 63 1022.4
20260506004535 76 14 1.7 3.5 0.00 0.00 0.00 62 1022.4
20260506004031 76 27 3.5 5.2 0.00 0.00 0.00 62 1022.3
20260506003528 77 1 1.7 4.3 0.00 0.00 0.00 61 1022.1
20260506003024 77 19 2.6 4.3 0.00 0.00 0.00 61 1021.9
20260506002520 77 351 2.6 4.3 0.00 0.00 0.00 60 1021.9
20260506002016 77 330 4.3 4.3 0.00 0.00 0.00 59 1022.0
20260506001512 78 356 2.6 5.2 0.00 0.00 0.00 59 1021.9
20260506001010 78 33 5.2 7.0 0.00 0.00 0.00 58 1021.9
20260506000507 78 26 1.7 5.2 0.00 0.00 0.00 58 1022.0
20260506000004 79 26 2.6 6.1 0.00 0.00 0.00 57 1022.0
20260505235502 79 25 1.7 7.0 0.00 0.00 0.00 57 1022.0
20260505234958 80 24 5.2 5.2 0.00 0.00 0.00 58 1021.6
20260505234456 80 49 1.7 5.2 0.00 0.00 0.00 56 1021.5
20260505233952 80 10 6.1 7.8 0.00 0.00 0.00 56 1021.6
20260505233450 81 21 1.7 5.2 0.00 0.00 0.00 58 1021.3
20260505232947 81 5 1.7 4.3 0.00 0.00 0.00 57 1021.3
20260505232445 82 17 3.5 5.2 0.00 0.00 0.00 56 1021.3
20260505231942 82 29 7.0 9.6 0.00 0.00 0.00 56 1021.2
20260505231439 83 65 1.7 6.1 0.00 0.00 0.00 57 1021.0
20260505230937 84 3 1.7 7.0 0.00 0.00 0.00 56 1020.9
20260505230435 85 9 1.7 6.1 0.00 0.00 0.00 55 1021.0
20260505225931 86 336 1.7 5.2 0.00 0.00 0.00 52 1020.7
20260505225428 86 358 1.7 5.2 0.00 0.00 0.00 49 1020.8
20260505224924 87 19 1.7 3.5 0.00 0.00 0.00 46 1020.8
20260505224421 88 353 1.7 3.5 0.00 0.00 0.00 45 1020.6
20260505223918 89 340 2.6 5.2 0.00 0.00 0.00 45 1020.5
20260505223415 89 1 3.5 5.2 0.00 0.00 0.00 46 1020.6
20260505222911 90 43 0.9 4.3 0.00 0.00 0.00 45 1020.5
20260505222408 91 27 4.3 5.2 0.00 0.00 0.00 43 1020.5
20260505221904 93 2 1.7 2.6 0.00 0.00 0.00 43 1020.3
20260505221401 93 0 1.7 3.5 0.00 0.00 0.00 44 1020.4
20260505220858 92 26 1.7 2.6 0.00 0.00 0.00 44 1020.2
20260505220355 92 356 1.7 3.5 0.00 0.00 0.00 43 1020.2
20260505215853 92 356 1.7 2.6 0.00 0.00 0.00 44 1020.1
20260505215351 92 12 1.7 2.6 0.00 0.00 0.00 44 1020.3
20260505214849 92 20 0.9 2.6 0.00 0.00 0.00 43 1020.2
20260505214346 92 330 1.7 2.6 0.00 0.00 0.00 41 1020.1
20260505213843 92 6 1.7 2.6 0.00 0.00 0.00 43 1020.2
20260505213341 93 334 1.7 3.5 0.00 0.00 0.00 41 1020.3
20260505212837 94 318 2.6 2.6 0.00 0.00 0.00 42 1020.3
20260505212334 93 338 1.7 4.3 0.00 0.00 0.00 41 1020.4
20260505211830 94 5 2.6 4.3 0.00 0.00 0.00 40 1020.3